Hourly Weather Kozly

Today, 28 October, Wednesday

Time Temperature Precipitation Wind Pressure Humidity
00:00 +12°C° 0.1 mm 2 mps 751 mmHg 89%
01:00 +12°C° 0 mm 2 mps 751 mmHg 89%
02:00 +11°C° 0.1 mm 1 mps 751 mmHg 89%
03:00 +11°C° 0.1 mm 1 mps 751 mmHg 89%
04:00 +11°C° 0.1 mm 1 mps 751 mmHg 90%
05:00 +11°C° 0 mm 1 mps 751 mmHg 90%
06:00 +11°C° 0 mm 1 mps 752 mmHg 91%
07:00 +10°C° 0 mm 2 mps 752 mmHg 92%
08:00 +12°C° 0 mm 2 mps 752 mmHg 86%
09:00 +12°C° 0 mm 3 mps 752 mmHg 80%
10:00 +13°C° 0 mm 3 mps 752 mmHg 74%
11:00 +14°C° 0 mm 3 mps 752 mmHg 72%
12:00 +15°C° 0 mm 4 mps 751 mmHg 70%
13:00 +17°C° 0 mm 4 mps 751 mmHg 67%
14:00 +16°C° 0 mm 3 mps 751 mmHg 70%
15:00 +16°C° 0 mm 3 mps 751 mmHg 74%
16:00 +14°C° 0 mm 3 mps 751 mmHg 77%
17:00 +14°C° 0 mm 3 mps 751 mmHg 79%
18:00 +13°C° 0 mm 3 mps 751 mmHg 81%
19:00 +13°C° 0 mm 3 mps 751 mmHg 84%
20:00 +12°C° 0 mm 3 mps 751 mmHg 84%
21:00 +13°C° 0 mm 2 mps 751 mmHg 84%
22:00 +12°C° 0 mm 2 mps 751 mmHg 85%
23:00 +12°C° 0 mm 2 mps 751 mmHg 84%

Tomorrow, 29 October, Thursday

Time Temperature Precipitation Wind Pressure Humidity
00:00 +10°C° 0 mm 3 mps 751 mmHg 82%
01:00 +10°C° 0 mm 3 mps 751 mmHg 81%
02:00 +10°C° 0 mm 3 mps 751 mmHg 81%
03:00 +9°C° 0 mm 2 mps 751 mmHg 80%
04:00 +9°C° 0 mm 2 mps 751 mmHg 79%
05:00 +9°C° 0 mm 3 mps 751 mmHg 81%
06:00 +9°C° 0 mm 3 mps 751 mmHg 82%
07:00 +8°C° 0 mm 3 mps 751 mmHg 84%
08:00 +10°C° 0 mm 3 mps 751 mmHg 79%
09:00 +11°C° 0 mm 3 mps 751 mmHg 74%
10:00 +12°C° 0 mm 4 mps 751 mmHg 69%
11:00 +12°C° 0 mm 4 mps 751 mmHg 68%
12:00 +13°C° 0 mm 4 mps 750 mmHg 66%
13:00 +13°C° 0 mm 5 mps 750 mmHg 65%
14:00 +13°C° 0 mm 4 mps 750 mmHg 68%
15:00 +12°C° 0 mm 3 mps 750 mmHg 70%
16:00 +13°C° 0 mm 2 mps 750 mmHg 73%
17:00 +11°C° 0.6 mm 3 mps 750 mmHg 78%
18:00 +11°C° 0.6 mm 3 mps 750 mmHg 82%
19:00 +10°C° 0.6 mm 4 mps 750 mmHg 87%
20:00 +10°C° 1.4 mm 4 mps 751 mmHg 85%
21:00 +9°C° 1.4 mm 5 mps 751 mmHg 84%
22:00 +8°C° 1.4 mm 5 mps 751 mmHg 82%
23:00 +8°C° 0.1 mm 5 mps 752 mmHg 82%

Day after tomorrow, 30 October, Friday

Time Temperature Precipitation Wind Pressure Humidity
00:00 +8°C° 0.1 mm 5 mps 752 mmHg 81%
01:00 +7°C° 0.1 mm 5 mps 752 mmHg 81%
02:00 +7°C° 0 mm 5 mps 752 mmHg 83%
03:00 +6°C° 0 mm 5 mps 753 mmHg 84%
04:00 +6°C° 0 mm 5 mps 753 mmHg 85%
05:00 +6°C° 0 mm 5 mps 753 mmHg 87%
06:00 +5°C° 0 mm 4 mps 753 mmHg 89%
07:00 +5°C° 0 mm 4 mps 754 mmHg 90%
08:00 +6°C° 0 mm 4 mps 754 mmHg 87%
09:00 +7°C° 0 mm 4 mps 754 mmHg 84%
10:00 +7°C° 0 mm 4 mps 754 mmHg 81%
11:00 +8°C° 0 mm 4 mps 754 mmHg 78%
12:00 +9°C° 0 mm 3 mps 754 mmHg 75%
13:00 +10°C° 0 mm 3 mps 753 mmHg 72%
14:00 +10°C° 0 mm 3 mps 753 mmHg 73%
15:00 +9°C° 0 mm 2 mps 753 mmHg 73%
16:00 +9°C° 0 mm 2 mps 753 mmHg 74%
17:00 +10°C° 0.1 mm 1 mps 753 mmHg 76%
18:00 +9°C° 0.1 mm 1 mps 753 mmHg 77%
19:00 +9°C° 0.1 mm 1 mps 753 mmHg 78%
20:00 +9°C° 0 mm 1 mps 753 mmHg 79%
21:00 +8°C° 0 mm 1 mps 753 mmHg 80%
22:00 +8°C° 0 mm 1 mps 754 mmHg 81%
23:00 +7°C° 0 mm 1 mps 754 mmHg 83%

31 October, Saturday

Time Temperature Precipitation Wind Pressure Humidity
00:00 +7°C° 0 mm 1 mps 755 mmHg 85%
01:00 +5°C° 0 mm 2 mps 755 mmHg 88%
02:00 +5°C° 0 mm 2 mps 756 mmHg 88%
03:00 +5°C° 0 mm 2 mps 756 mmHg 89%
04:00 +5°C° 0 mm 2 mps 757 mmHg 90%
05:00 +5°C° 0 mm 2 mps 757 mmHg 90%
06:00 +4°C° 0 mm 2 mps 758 mmHg 90%
07:00 +5°C° 0 mm 1 mps 758 mmHg 90%
08:00 +6°C° 0 mm 2 mps 759 mmHg 83%
09:00 +7°C° 0 mm 2 mps 759 mmHg 77%
10:00 +8°C° 0 mm 2 mps 760 mmHg 70%
11:00 +10°C° 0 mm 1 mps 760 mmHg 68%
12:00 +11°C° 0 mm 1 mps 759 mmHg 65%
13:00 +11°C° 0 mm 1 mps 759 mmHg 63%
14:00 +11°C° 0 mm 1 mps 759 mmHg 67%
15:00 +10°C° 0 mm 1 mps 760 mmHg 70%
16:00 +8°C° 0 mm 0 mps 760 mmHg 74%
17:00 +8°C° 0 mm 0 mps 760 mmHg 76%
18:00 +7°C° 0 mm 0 mps 760 mmHg 79%
19:00 +7°C° 0 mm 0 mps 760 mmHg 81%
20:00 +7°C° 0 mm 1 mps 760 mmHg 83%
21:00 +7°C° 0 mm 1 mps 760 mmHg 85%
22:00 +7°C° 0 mm 1 mps 760 mmHg 86%
23:00 +5°C° 0 mm 2 mps 760 mmHg 87%

1 November, Sunday

Time Temperature Precipitation Wind Pressure Humidity
00:00 +5°C° 0 mm 2 mps 760 mmHg 88%
01:00 +5°C° 0 mm 2 mps 760 mmHg 89%
02:00 +5°C° 0 mm 2 mps 760 mmHg 89%
03:00 +5°C° 0 mm 2 mps 760 mmHg 90%
04:00 +4°C° 0 mm 2 mps 760 mmHg 90%
05:00 +4°C° 0 mm 2 mps 760 mmHg 91%
06:00 +3°C° 0 mm 3 mps 760 mmHg 91%
07:00 +3°C° 0 mm 3 mps 760 mmHg 92%
08:00 +5°C° 0 mm 3 mps 759 mmHg 85%
09:00 +6°C° 0 mm 4 mps 759 mmHg 79%
10:00 +8°C° 0 mm 4 mps 759 mmHg 72%
11:00 +8°C° 0 mm 4 mps 759 mmHg 69%
12:00 +10°C° 0 mm 4 mps 759 mmHg 66%
13:00 +10°C° 0 mm 5 mps 758 mmHg 62%
14:00 +10°C° 0 mm 4 mps 758 mmHg 67%
15:00 +8°C° 0 mm 4 mps 758 mmHg 71%
16:00 +8°C° 0 mm 4 mps 757 mmHg 75%
17:00 +7°C° 0 mm 4 mps 757 mmHg 78%
18:00 +7°C° 0 mm 4 mps 757 mmHg 80%
19:00 +6°C° 0 mm 4 mps 757 mmHg 83%
20:00 +6°C° 0 mm 4 mps 757 mmHg 84%
21:00 +6°C° 0 mm 4 mps 757 mmHg 84%
22:00 +6°C° 0 mm 4 mps 757 mmHg 85%
23:00 +6°C° 0 mm 4 mps 757 mmHg 84%

2 November, Monday

Time Temperature Precipitation Wind Pressure Humidity
00:00 +6°C° 0 mm 4 mps 757 mmHg 84%
01:00 +6°C° 0 mm 4 mps 757 mmHg 84%
02:00 +5°C° 0 mm 4 mps 756 mmHg 83%
03:00 +5°C° 0 mm 4 mps 756 mmHg 83%
04:00 +5°C° 0 mm 4 mps 756 mmHg 82%
05:00 +5°C° 0 mm 4 mps 756 mmHg 82%
06:00 +5°C° 0 mm 4 mps 757 mmHg 82%
07:00 +5°C° 0 mm 4 mps 757 mmHg 82%
08:00 +6°C° 0 mm 4 mps 757 mmHg 77%
09:00 +8°C° 0 mm 4 mps 757 mmHg 73%
10:00 +10°C° 0 mm 4 mps 757 mmHg 68%
11:00 +11°C° 0 mm 4 mps 757 mmHg 66%
12:00 +11°C° 0 mm 4 mps 757 mmHg 65%
13:00 +12°C° 0 mm 4 mps 757 mmHg 63%
14:00 +11°C° 0 mm 4 mps 757 mmHg 66%
15:00 +11°C° 0 mm 4 mps 757 mmHg 68%
16:00 +10°C° 0 mm 3 mps 757 mmHg 71%
17:00 +10°C° 0 mm 3 mps 757 mmHg 72%
18:00 +9°C° 0 mm 3 mps 757 mmHg 73%
19:00 +9°C° 0 mm 3 mps 757 mmHg 75%
20:00 +9°C° 0 mm 3 mps 757 mmHg 75%
21:00 +7°C° 0 mm 4 mps 758 mmHg 76%
22:00 +7°C° 0 mm 4 mps 758 mmHg 76%
23:00 +8°C° 0 mm 3 mps 758 mmHg 77%
Show more